284P/McNaught (2021)

Japanese version
Home page
Updated on July 8, 2020

---------------------------------------------------------------------

* Profile

* Orbital Elements

Epoch 2021 Sept. 23.0 TT = JDT 2459480.5
T 2021 Sept. 12.71290 TT                                Rudenko
q   2.2957376            (2000.0)            P               Q
n   0.13965482     Peri.  202.44843     +0.96846231     +0.21833095
a   3.6793020      Node   144.26291     -0.18574121     +0.95378461
e   0.3760399      Incl.   11.86135     -0.16607515     +0.20646188
P   7.06
From 1741 observations 2006 Apr. 25-2015 Feb. 12, mean residual 0".6.

* Finding Charts

* Magnitudes Graph

        m1 = 7.5 + 5 log d + 20.0 log r

---------------------------------------------------------------------

The orbital elements are published on M.P.E.C. 2020-H67.
The charts are made with StellaNavigator Ver.10 (AstroArts).
The magnitudes graphs are made with Comet for Windows.

---------------------------------------------------------------------

Copyright(C) Seiichi Yoshida (comet@aerith.net). All rights reserved.